Hourly Weather Roundup
Issued by NWS Central Illinois

Home | Current Version | Previous Version | Text Only | Print | Product List | Glossary On
Versions: 1 2 3 4 5 6 7 8 9 10 11 12 13 14 15 16 17 18 19 20 21 22 23 24 25 26 27 28 29 30 31 32 33 34 35 36 37 38 39 40 41 42 43 44 45 46 47 48 49 50
000
NZUS43 KILX 020610
HWRILX

AREA WEATHER ROUNDUP
NATIONAL WEATHER SERVICE, LINCOLN IL
100 AM CDT MON MAY 02 2016


CITY           SKY/WX    TMP DP  RH WIND       PRES   REMARKS
BLOOMINGTON    CLOUDY    49  49 100 NW7       30.01S
6HR MIN TEMP:  49; 6HR MAX TEMP:  53; 6HR PCP:  0.08;

CHAMPAIGN      CLOUDY    50  48  93 NW10      29.98R
6HR MIN TEMP:  50; 6HR MAX TEMP:  61; 6HR PCP: TRACE;

DANVILLE       CLOUDY    50  49  96 W7        29.94S FOG
6HR MIN TEMP:  50; 6HR MAX TEMP:  59;

DECATUR        CLOUDY    53  49  86 NW9       30.00R
6HR MIN TEMP:  52; 6HR MAX TEMP:  63;

EFFINGHAM      PTCLDY    55  53  94 W7        30.01R
FLORA          PTCLDY    57  53  85 NW8       29.99S
6HR MIN TEMP:  57; 6HR MAX TEMP:  74;

GALESBURG      CLOUDY    48  47  95 NW5       30.04R
JACKSONVILLE   CLOUDY    51  49  90 NW9       30.04R
6HR MIN TEMP:  51; 6HR MAX TEMP:  57;

LACON          CLOUDY    47  46  95 N5        30.02S
6HR MIN TEMP:  47; 6HR MAX TEMP:  49;

LAWRENCEVILLE  PTCLDY    58  54  86 NW9       29.97R
6HR MIN TEMP:  58; 6HR MAX TEMP:  75; 6HR PCP:  0.16;

LITCHFIELD     CLEAR     50  48  91 NW7       30.01R
$$


CITY           SKY/WX    TMP DP  RH WIND       PRES   REMARKS
LINCOLN        CLOUDY    51  49  95 N6        30.01S
6HR MIN TEMP:  51; 6HR MAX TEMP:  56;

MACOMB         CLOUDY    49  49  99 NW6       30.07R FOG
MATTOON        PTCLDY    52  49  89 N8        29.98R
6HR MIN TEMP:  52; 6HR MAX TEMP:  66; 6HR PCP: TRACE;

MT CARMEL AP   NOT AVBL
OLNEY-NOBLE AP CLOUDY    55  52  88 NW10      29.99R
PARIS          MOCLDY    52  51  97 CALM      29.98S FOG
6HR MIN TEMP:  52; 6HR MAX TEMP:  68; 6HR PCP:  0.50;

PEORIA         CLOUDY    49  45  86 N3        30.02S
6HR MIN TEMP:  49; 6HR MAX TEMP:  53; 6HR PCP: TRACE;

PONTIAC        CLOUDY    49  48  97 N7        30.01R
RANTOUL        CLOUDY    51  49  93 NW7       29.99R
6HR MIN TEMP:  51; 6HR MAX TEMP:  59;

ROBINSON       MOCLDY    56  53  88 NW9       29.97S
6HR MIN TEMP:  56; 6HR MAX TEMP:  71; 6HR PCP:  0.06;

SPRINGFIELD    CLOUDY    53  50  89 NW7       30.02R
6HR MIN TEMP:  53; 6HR MAX TEMP:  58; 6HR PCP: TRACE;

TAYLORVILLE    PTCLDY    54  48  82 NW12      30.00S
$$

...REGIONAL REPORTS...


CITY           SKY/WX    TMP DP  RH WIND       PRES   REMARKS
CHICAGO O`HARE CLOUDY    44  42  93 NE12      30.02R
KANKAKEE       CLOUDY    48  47  95 NW6       29.99R FOG
MOLINE         CLOUDY    50  47  89 CALM      30.04S
MOUNT STERLING DRIZZLE   49  48  97 NW7       30.05R
MOUNT VERNON   PTCLDY    55  48  76 CALM      30.02R
PITTSFIELD     CLOUDY    51  49  93 NW7       30.06R
QUINCY         CLOUDY    49  48  97 NW9       30.07R
ROCKFORD       LGT RAIN  48  45  89 NE14      30.07R
$$


CITY           SKY/WX    TMP DP  RH WIND       PRES   REMARKS
BURLINGTON     CLOUDY    49  49 100 NW5       30.06R
CEDAR RAPIDS   CLOUDY    46  46 100 NW7       30.08R
DES MOINES     MOCLDY    48  44  86 N7        30.12R
KIRKSVILLE     CLOUDY    48  45  89 NW6       30.10S
OTTUMWA        CLOUDY    47  46  97 N7        30.09R
ST LOUIS       PTCLDY    54  49  83 NW10      30.04R
$$


CITY           SKY/WX    TMP DP  RH WIND       PRES   REMARKS
TERRE HAUTE    MOCLDY    57  53  86 NW5       29.96R
EVANSVILLE     PTCLDY    60  51  72 NW6       29.97R
INDIANAPOLIS   CLOUDY    59  56  89 W8        29.91S
LAFAYETTE      CLOUDY    52  51  97 W8        29.93S FOG
MADISON        CLOUDY    48  42  80 NE7       30.07R
MILWAUKEE      CLOUDY    45  41  86 NE9       30.06R
$$





USA.gov is the U.S. government's official web portal to all federal, state and local government web resources and services.